[[{"header":{"parameterUnit":"m.s-1","parameterCategory":1,"la1":30.2991,"la2":30.254,"lo1":-89.0895,"lo2":-89.0444,"dy":0.0017,"dx":0.0017,"nx":28,"ny":28,"refTime":"2024-04-14T03:00:00:Z","depth":0,"parameterNumber":2,"parameterNumberName":"U-component_of_WINDS"},"data":[0,0,0,0,0,0,0,0,0,0,0,0,0,0,0,0,0,0,0,0,0,0,0,0,0,0,0,0,0,0,0,0,0,0,0,0,0,0,0,0,0,0,0,0,0,0,0,0,0,0,0,0,0,0,0,0,0,0,-1.9788,-1.9788,0,-1.9771,-1.9771,-1.9771,-1.973,-1.9729,-1.9728,-1.9727,-1.971,-1.971,-1.9711,0,0,0,0,0,0,0,0,0,0,0,0,0,-1.9785,-1.9785,-1.9788,-1.9788,-1.9787,-1.9772,-1.9771,-1.9771,-1.973,-1.9729,-1.9728,-1.9727,-1.971,-1.971,-1.9711,0,0,0,0,0,0,0,0,0,0,0,0,0,-1.9779,-1.9785,-1.9788,-1.9765,-1.9763,-1.9772,-1.9771,-1.9771,-1.973,-1.9729,-1.9727,-1.9726,-1.971,-1.971,-1.9711,-1.9741,0,0,-1.9713,-1.9713,0,0,0,0,0,0,0,0,-1.9779,-1.9779,-1.9768,-1.9767,-1.9764,-1.9751,-1.9764,-1.9761,-1.973,-1.9742,-1.9727,-1.9725,-1.9725,-1.9724,-1.9724,-1.974,-1.9739,-1.9713,-1.9713,-1.9713,-1.9713,0,0,0,0,0,0,0,-1.978,-1.978,-1.9781,-1.9768,-1.9766,-1.9756,-1.9754,-1.9763,-1.9741,-1.9741,-1.9738,-1.9737,-1.9723,-1.9723,-1.9723,-1.9739,-1.9713,-1.9713,-1.9713,-1.9714,-1.978,-1.9781,0,0,0,0,0,0,-1.9783,-1.978,-1.9782,-1.9781,-1.9769,-1.9757,-1.9754,-1.9757,-1.9741,-1.9737,-1.9738,-1.9735,-1.9723,-1.9723,-1.9722,-1.9756,-1.9713,-1.9714,-1.9714,-1.9779,-1.978,-1.9782,0,0,0,0,0,0,-1.9784,-1.9784,-1.9783,-1.978,-1.9779,-1.9758,-1.9761,-1.9757,-1.9757,-1.9738,-1.9734,-1.9742,-1.9722,-1.9722,-1.9737,-1.9755,-1.9714,-1.9714,-1.9777,-1.9779,-1.9781,-1.9825,0,0,0,0,0,0,-1.9784,-1.9784,-1.9795,-1.978,-1.9779,-1.9797,-1.9762,-1.9758,-1.9758,-1.9754,-1.9741,-1.9738,-1.9721,-1.9736,-1.9737,-1.9755,-1.9715,-1.9775,-1.9778,-1.978,-1.9822,-1.9828,-1.9834,0,0,0,0,0,-1.9784,-1.9807,-1.9795,-1.9796,-1.9792,-1.9798,-1.9797,-1.9777,-1.976,-1.977,-1.9759,-1.9738,-1.9754,-1.9738,-1.9739,-1.9757,-1.9774,-1.9777,-1.978,-1.9819,-1.9827,-1.9834,0,0,0,0,0,0,-1.9824,-1.9805,-1.9791,-1.9811,-1.9807,-1.9791,-1.9803,-1.9786,-1.9786,-1.9783,-1.9758,-1.9756,-1.9774,-1.9768,-1.9751,-1.9786,-1.976,-1.9764,-1.979,-1.9797,-1.9803,-1.9804,-1.9715,0,0,0,0,0,-1.9835,-1.9842,-1.9825,-1.9844,-1.9842,-1.9824,-1.9826,-1.9811,-1.9805,-1.9803,-1.9792,-1.9787,-1.9791,-1.9794,-1.9796,-1.9821,-1.9818,-1.9835,-1.9841,-1.9846,-1.9849,-1.9863,-1.987,-1.9792,-1.9792,-1.9792,0,0,-1.9858,-1.9849,-1.9854,-1.9852,-1.9846,-1.9854,-1.9822,-1.9831,-1.9836,-1.9804,-1.9817,-1.981,-1.9803,-1.9824,-1.9832,-1.9819,-1.987,-1.985,-1.9854,-1.9854,-1.9867,-1.9874,-1.988,-1.9795,-1.9794,-1.9794,0,0,-1.9904,-1.9898,-1.9913,-1.9909,-1.9901,-1.9889,-1.9893,-1.9881,-1.9875,-1.9888,-1.9864,-1.9871,-1.9878,-1.9874,-1.9873,-1.9921,-1.9902,-1.9923,-1.9954,-1.9967,-1.9973,-1.9979,-1.9996,-2.0002,-1.9926,-1.9926,-1.9926,0,-1.9933,-1.9943,-1.9923,-1.9934,-1.9934,-1.9906,-1.9922,-1.9919,-1.9913,-1.9914,-1.9899,-1.9909,-1.9902,-1.9922,-1.9933,-1.9934,-1.9938,-1.9923,-1.9974,-1.9979,-1.9984,-2.0,-2.0006,-1.9928,-1.9928,-1.9928,-1.9928,0,-1.998,-1.9988,-2.0001,-1.9996,-1.9998,-2.0012,-1.9994,-1.9999,-1.9985,-1.9975,-1.999,-1.9982,-1.9982,-1.9986,-1.9972,-2.0004,-1.9996,-1.9979,-1.9952,-1.9994,-2.0009,-2.0015,-1.9932,-1.9931,-1.993,-1.993,0,0,-2.0048,-2.0034,-2.0039,-2.0037,-2.0028,-2.0034,-2.0047,-2.0048,-2.0053,-2.005,-2.0061,-2.0069,-2.0053,-2.0052,-2.0038,-2.005,-2.0088,-2.0031,-2.003,-2.0041,-2.0124,-2.0136,-2.0144,-2.0077,-2.0078,-2.0079,-2.0124,0,-2.0091,-2.0111,-2.0095,-2.0119,-2.0126,-2.0101,-2.0112,-2.0109,-2.01,-2.0106,-2.0096,-2.0102,-2.0081,-2.008,-2.0091,-2.0081,-2.0104,-2.0078,-2.0086,-2.0087,-2.0087,-2.0151,-2.0164,-2.0207,-2.013,-2.013,-2.0131,0,-2.0142,-2.0143,-2.0168,-2.0159,-2.0161,-2.0171,-2.0172,-2.0177,-2.0173,-2.0167,-2.0167,-2.0151,-2.0163,-2.0139,-2.0157,-2.0139,-2.0142,-2.0138,-2.0139,-2.0138,-2.011,-2.0151,-2.022,-2.0226,-2.014,-2.0139,-2.0139,0,-2.0189,-2.0196,-2.0212,-2.0211,-2.0201,-2.0209,-2.0206,-2.02,-2.0203,-2.0204,-2.0205,-2.0208,-2.0209,-2.0212,-2.0197,-2.0181,-2.0217,-2.0191,-2.0212,-2.0212,-2.0219,-2.0218,-2.0289,-2.0223,-2.0223,-2.0223,-2.0222,0,-2.0238,-2.0254,-2.0233,-2.0243,-2.0261,-2.0242,-2.0261,-2.0254,-2.025,-2.0259,-2.0238,-2.0247,-2.0227,-2.0234,-2.0223,-2.024,-2.0241,-2.0236,-2.0232,-2.0237,-2.0237,-2.0237,-2.0233,-2.0224,-2.0224,-2.0224,-2.0223,0,-2.0292,-2.0279,-2.0295,-2.0285,-2.0282,-2.0296,-2.0287,-2.0296,-2.0288,-2.0299,-2.0301,-2.0287,-2.0294,-2.028,-2.0285,-2.0278,-2.0302,-2.0294,-2.0303,-2.03,-2.0321,-2.0319,-2.0393,-2.0402,-2.0331,-2.0332,-2.0333,0,-2.0323,-2.0335,-2.0327,-2.0331,-2.0329,-2.0336,-2.0338,-2.0322,-2.0326,-2.0323,-2.0333,-2.0339,-2.0342,-2.0355,-2.0346,-2.035,-2.0342,-2.0368,-2.0342,-2.0347,-2.0342,-2.0341,-2.0342,-2.0372,-2.0373,-2.0374,-2.0374,0,-2.038,-2.0373,-2.0378,-2.0381,-2.0385,-2.0386,-2.0386,-2.0391,-2.0374,-2.0379,-2.0387,-2.039,-2.0396,-2.0402,-2.0405,-2.0401,-2.0385,-2.0383,-2.0388,-2.0392,-2.0396,-2.0394,-2.0316,-2.0381,-2.038,-2.038,-2.0379,-2.0379,-2.0423,-2.0433,-2.0429,-2.0435,-2.0434,-2.0435,-2.0443,-2.0436,-2.0442,-2.0445,-2.0436,-2.0446,-2.0443,-2.0445,-2.0444,-2.0452,-2.044,-2.0448,-2.0449,-2.0451,-2.0454,-2.0396,-2.0452,-2.0452,-2.0452,-2.0452,-2.0452,0,-2.0478,-2.0475,-2.0481,-2.0482,-2.0488,-2.0473,-2.0473,-2.0478,-2.0487,-2.0486,-2.0491,-2.05,-2.0507,-2.0499,-2.0504,-2.0512,-2.0505,-2.0514,-2.0512,-2.0512,-2.0464,-2.0459,-2.052,-2.052,-2.052,-2.052,-2.052,-2.0519,-2.0508,-2.0523,-2.0517,-2.0533,-2.0529,-2.0539,-2.054,-2.0541,-2.0541,-2.0552,-2.0557,-2.0552,-2.0549,-2.0554,-2.056,-2.0558,-2.056,-2.0572,-2.0567,-2.0522,-2.0515,-2.0509,-2.0504,-2.0573,-2.0573,-2.0614,-2.0614,-2.0614]},{"header":{"parameterUnit":"m.s-1","parameterCategory":1,"la1":30.2991,"la2":30.254,"lo1":-89.0895,"lo2":-89.0444,"dy":0.0017,"dx":0.0017,"nx":28,"ny":28,"refTime":"2024-04-14T03:00:00:Z","depth":0,"parameterNumber":3,"parameterNumberName":"V-component_of_WINDS"},"data":[0,0,0,0,0,0,0,0,0,0,0,0,0,0,0,0,0,0,0,0,0,0,0,0,0,0,0,0,0,0,0,0,0,0,0,0,0,0,0,0,0,0,0,0,0,0,0,0,0,0,0,0,0,0,0,0,0,0,3.8446,3.8446,0,3.8392,3.8391,3.8391,3.839,3.8391,3.8392,3.8392,3.8333,3.8331,3.8328,0,0,0,0,0,0,0,0,0,0,0,0,0,3.8548,3.8547,3.8446,3.8446,3.8445,3.8392,3.8391,3.8391,3.839,3.8391,3.8392,3.8393,3.8334,3.8331,3.8328,0,0,0,0,0,0,0,0,0,0,0,0,0,3.85,3.8546,3.8447,3.8439,3.8437,3.8392,3.8391,3.839,3.839,3.8391,3.8392,3.8393,3.8334,3.8331,3.8328,3.8286,0,0,3.8318,3.8316,0,0,0,0,0,0,0,0,3.8503,3.8496,3.844,3.8439,3.8438,3.8399,3.8405,3.8355,3.839,3.8408,3.8392,3.8394,3.8354,3.8349,3.8336,3.8283,3.8281,3.8317,3.8315,3.8314,3.8313,0,0,0,0,0,0,0,3.8506,3.8499,3.8425,3.844,3.8438,3.8437,3.8431,3.8396,3.8375,3.8406,3.8406,3.84,3.8353,3.8339,3.8335,3.828,3.8317,3.8314,3.8312,3.8311,3.8192,3.819,0,0,0,0,0,0,3.8511,3.8501,3.8427,3.8423,3.8474,3.8435,3.8428,3.841,3.8376,3.8372,3.8399,3.84,3.8345,3.8339,3.8333,3.8282,3.8314,3.8311,3.8309,3.8193,3.8191,3.819,0,0,0,0,0,0,3.8514,3.8505,3.8429,3.8462,3.8453,3.8432,3.8412,3.8409,3.8395,3.837,3.8366,3.8389,3.8345,3.8337,3.8298,3.828,3.8309,3.8306,3.8194,3.8192,3.8191,3.8181,0,0,0,0,0,0,3.8517,3.8506,3.849,3.8462,3.8451,3.8396,3.8411,3.8407,3.839,3.839,3.836,3.8356,3.8346,3.8303,3.8295,3.8276,3.8303,3.8196,3.8193,3.8191,3.8183,3.8179,3.8176,0,0,0,0,0,3.852,3.8488,3.8489,3.848,3.8431,3.8395,3.8388,3.8378,3.8388,3.8372,3.8357,3.8357,3.8284,3.8299,3.829,3.827,3.8197,3.8194,3.8191,3.8184,3.818,3.8176,0,0,0,0,0,0,3.8512,3.8484,3.8485,3.8442,3.8421,3.8395,3.8373,3.8373,3.8347,3.8349,3.8337,3.833,3.8291,3.8277,3.8294,3.8229,3.8241,3.8237,3.8239,3.8235,3.8232,3.8236,3.8301,0,0,0,0,0,3.8505,3.8479,3.8456,3.8421,3.8411,3.8394,3.8378,3.8373,3.8349,3.834,3.8321,3.8298,3.827,3.8252,3.8225,3.8181,3.8175,3.8163,3.816,3.8157,3.8153,3.813,3.8125,3.8182,3.8182,3.8182,0,0,3.8491,3.8473,3.8457,3.8419,3.8402,3.8375,3.8386,3.8357,3.8336,3.8335,3.8297,3.8283,3.8257,3.8216,3.8197,3.8202,3.8136,3.8154,3.8152,3.8149,3.8127,3.8122,3.8117,3.818,3.818,3.818,0,0,3.8451,3.8435,3.8405,3.8388,3.8363,3.8352,3.8345,3.8319,3.8311,3.8273,3.8272,3.8248,3.8199,3.8181,3.8165,3.8122,3.8122,3.8113,3.8095,3.8073,3.8069,3.8065,3.805,3.8045,3.811,3.811,3.811,0,3.8436,3.8397,3.8389,3.836,3.8344,3.8344,3.8313,3.8297,3.8263,3.8252,3.8259,3.8201,3.8182,3.8138,3.8128,3.8115,3.8106,3.8116,3.8071,3.8066,3.8063,3.8048,3.8043,3.8109,3.8109,3.8109,3.8109,0,3.838,3.8352,3.8331,3.8301,3.8283,3.8253,3.8241,3.8223,3.822,3.8209,3.8171,3.815,3.8119,3.8109,3.8104,3.8064,3.8068,3.8073,3.8086,3.8057,3.8043,3.8037,3.8108,3.8108,3.8108,3.8108,0,0,3.8331,3.83,3.8292,3.8279,3.8252,3.8231,3.8202,3.8174,3.8159,3.8136,3.8112,3.8073,3.8078,3.806,3.8054,3.8035,3.8003,3.8042,3.8041,3.8036,3.7959,3.7955,3.7949,3.8003,3.8002,3.8001,3.7961,0,3.8289,3.8238,3.8232,3.8187,3.8162,3.8163,3.8137,3.8118,3.8108,3.8085,3.8073,3.8046,3.8054,3.8044,3.8025,3.8011,3.7987,3.8014,3.798,3.7979,3.7986,3.7941,3.7937,3.79,3.7955,3.7955,3.7954,0,3.8232,3.8211,3.8164,3.8143,3.8132,3.811,3.8084,3.8062,3.8041,3.8035,3.8017,3.8014,3.7984,3.7999,3.7958,3.7976,3.7962,3.7953,3.7951,3.7947,3.7964,3.7936,3.7888,3.7882,3.7945,3.7946,3.7947,0,3.8202,3.8161,3.8128,3.8117,3.8092,3.8076,3.8065,3.8045,3.8029,3.8007,3.7996,3.797,3.7956,3.7936,3.7926,3.7938,3.7886,3.79,3.788,3.788,3.7868,3.7869,3.7816,3.7859,3.7859,3.7859,3.786,0,3.8155,3.8127,3.8115,3.8095,3.8063,3.8056,3.8025,3.8013,3.7996,3.7974,3.7972,3.7951,3.794,3.7917,3.7909,3.7876,3.787,3.7864,3.7862,3.7864,3.7865,3.7854,3.7856,3.7858,3.7858,3.7859,3.7859,0,3.8116,3.8107,3.8071,3.8051,3.8045,3.8023,3.8005,3.7986,3.7977,3.7948,3.7941,3.7926,3.79,3.7889,3.7855,3.785,3.7813,3.7813,3.782,3.782,3.7801,3.7803,3.7739,3.7731,3.7779,3.7779,3.7779,0,3.8086,3.8065,3.8043,3.8029,3.8018,3.7994,3.7979,3.7972,3.7956,3.7932,3.7915,3.7889,3.7867,3.7825,3.781,3.7785,3.7785,3.7764,3.7781,3.7784,3.7785,3.7786,3.7784,3.7761,3.776,3.776,3.776,0,3.8036,3.8033,3.8012,3.7989,3.7972,3.7953,3.7935,3.7923,3.7913,3.7895,3.7869,3.7853,3.782,3.7794,3.7769,3.7756,3.7756,3.7755,3.7749,3.7751,3.7756,3.7753,3.7812,3.7756,3.7757,3.7757,3.7757,3.7757,3.8,3.7982,3.7965,3.7941,3.7928,3.7912,3.7893,3.7883,3.7861,3.7835,3.7832,3.7804,3.7785,3.7751,3.7738,3.7716,3.7721,3.7712,3.771,3.7708,3.7707,3.776,3.7711,3.7711,3.7711,3.7711,3.7711,0,3.795,3.794,3.7918,3.7895,3.7877,3.788,3.7861,3.7846,3.7821,3.7804,3.7784,3.7755,3.773,3.7715,3.7691,3.7676,3.7676,3.767,3.7671,3.7668,3.7703,3.7711,3.7671,3.7671,3.7671,3.7671,3.7671,3.7671,3.7922,3.7891,3.7887,3.785,3.7839,3.7813,3.7802,3.7788,3.7774,3.7742,3.7722,3.7714,3.7697,3.7672,3.765,3.7646,3.7637,3.7631,3.7628,3.7661,3.7665,3.7669,3.7677,3.7629,3.7629,3.7594,3.7594,3.7594]}]]